Theta_e
364 363 366 360 337 326 315 317 324 322 325 333 335 327 326 328 323 318 340 345 349 350 355 357 361 361 361 361 361 363 361 361 362 360 360 360 360 360 359 359 359 358 357 355 353 354 358 359 359
368 367 361 350 327 314 314 322 320 324 327 333 335 329 327 324 333 335 336 346 346 348 350 351 361 362 359 361 361 361 362 361 363 360 360 360 360 360 360 360 359 359 358 356 356 359 360 360 360
368 368 348 338 321 314 315 322 324 327 330 330 331 334 328 326 335 336 342 344 345 345 347 354 361 361 362 361 361 362 362 362 361 364 361 360 360 360 362 361 360 361 360 360 360 361 361 360 359
358 354 350 322 317 321 321 324 326 327 326 331 333 326 332 338 337 340 342 343 347 346 347 358 362 361 360 361 361 362 361 362 363 362 364 361 362 361 361 361 361 361 361 361 361 361 360 360 358
350 343 325 319 319 322 326 328 328 324 324 328 331 326 329 337 342 342 344 346 345 345 351 357 362 360 360 360 361 362 362 361 361 362 362 364 362 362 362 361 361 362 361 361 361 361 360 359 357
333 333 319 316 318 323 327 328 327 324 326 329 329 328 330 339 339 343 343 345 346 349 352 356 360 361 361 361 361 362 362 361 362 362 363 363 365 364 363 362 361 362 362 361 360 358 358 358 358
329 321 320 318 319 321 326 331 326 324 325 327 332 325 331 336 340 343 344 345 346 347 350 354 354 360 362 362 361 360 361 362 361 360 362 363 363 361 363 362 362 362 362 362 360 358 358 358 357
331 325 319 320 318 320 327 329 331 328 323 333 334 324 326 335 340 342 342 343 345 345 349 347 348 354 354 356 361 360 360 361 360 361 359 361 362 363 361 365 363 361 361 361 359 358 358 357 357
334 322 318 319 320 322 329 328 332 334 330 330 332 331 335 338 340 338 338 342 344 344 349 345 350 357 360 355 356 360 360 361 361 360 362 361 357 358 358 363 363 360 361 360 359 358 358 358 358
328 322 321 326 326 325 328 329 325 330 326 324 329 334 336 337 337 335 337 337 339 340 345 345 348 351 350 348 356 362 355 358 361 358 359 358 358 356 360 361 363 362 362 361 361 360 360 358 351
326 321 325 327 329 329 328 329 331 327 323 325 326 329 332 334 335 334 336 338 338 341 343 348 354 351 353 356 355 355 355 359 357 365 366 356 360 358 357 357 355 357 361 356 359 358 356 351 350
320 327 328 329 331 329 327 331 327 328 327 330 330 331 332 332 333 333 333 335 337 340 344 348 351 355 358 357 353 352 355 356 354 358 364 364 358 359 348 356 353 358 357 356 353 356 357 354 356
325 326 329 331 330 330 331 328 328 328 330 331 331 331 332 333 334 334 334 335 338 339 343 346 354 363 363 358 360 355 351 356 359 362 363 359 361 359 361 358 356 350 353 352 354 356 354 353 353
328 329 328 331 329 330 326 326 329 329 331 330 331 331 332 333 333 335 334 334 338 342 342 348 353 361 360 365 356 350 350 354 359 364 363 366 360 367 363 365 364 364 365 358 363 356 358 352 353
327 319 321 323 330 323 321 318 324 332 331 330 331 332 333 334 335 335 337 337 338 341 345 348 352 356 361 363 361 352 347 353 358 362 366 362 364 362 369 362 363 360 366 366 366 364 363 360 358
324 320 313 320 329 328 326 315 327 333 331 331 332 333 333 336 338 339 340 341 343 344 350 350 348 351 356 354 359 352 350 352 356 361 363 362 366 362 368 363 358 357 362 364 364 358 363 357 358
319 312 313 319 327 330 327 324 330 333 332 331 333 334 334 337 339 341 342 346 346 350 352 353 356 352 355 364 363 355 354 358 363 359 361 367 364 364 365 361 360 367 361 361 360 361 356 350 358
311 311 314 313 321 323 322 323 329 331 332 332 333 334 336 336 337 339 342 346 350 352 352 356 355 362 368 360 371 355 360 360 360 357 361 368 368 366 367 360 365 365 360 360 362 355 361 358 353
317 316 316 318 322 320 319 319 328 330 330 331 333 334 336 337 341 342 342 343 346 351 353 356 358 364 363 362 353 355 354 353 357 357 367 367 366 367 371 364 368 368 364 363 365 363 357 356 357
319 313 313 319 323 321 320 319 319 326 329 331 333 335 337 338 339 342 343 343 347 351 356 359 361 363 364 365 361 367 369 354 363 363 368 364 367 370 361 365 364 366 362 366 362 365 357 356 360
319 314 316 315 320 321 316 318 318 321 326 332 333 336 338 338 340 341 342 344 346 352 353 358 362 360 363 366 359 363 367 370 364 362 353 351 357 367 367 367 359 363 366 360 361 361 360 354 353
314 320 319 319 315 311 319 307 316 319 319 327 331 332 335 338 340 342 342 343 345 350 352 359 362 361 361 366 358 364 362 352 358 357 362 354 368 366 364 368 369 367 367 360 359 361 358 355 350
317 323 319 317 316 314 312 310 315 316 313 322 329 331 333 337 341 341 343 345 346 350 351 356 363 365 368 368 370 364 363 365 366 365 364 365 370 366 365 366 364 362 366 364 363 361 358 357 355
323 319 317 318 313 306 309 308 308 316 320 325 328 330 332 335 340 343 344 348 347 349 350 355 361 364 368 368 367 368 365 366 362 362 363 364 366 362 362 360 360 362 360 357 360 360 359 356 357
320 314 307 302 306 303 312 308 313 318 321 325 327 329 332 336 338 342 343 344 347 349 350 354 359 360 364 363 363 365 365 367 366 364 364 363 358 358 358 361 356 355 356 356 358 355 354 355 357
316 315 308 301 301 305 313 308 313 323 325 328 330 331 333 334 337 339 345 346 348 348 350 354 357 360 362 362 365 369 371 364 365 366 365 362 361 354 358 357 354 351 351 350 351 347 349 347 344
316 311 316 309 310 303 309 313 318 322 324 326 329 331 332 334 337 340 343 346 348 348 350 353 358 359 359 357 366 367 368 367 364 364 365 359 357 352 353 348 347 348 349 349 348 346 346 345 345
318 319 309 311 303 299 306 309 307 318 322 324 326 331 333 335 337 341 342 343 347 346 350 354 358 359 359 360 363 363 364 365 363 362 355 352 350 350 349 348 348 347 348 347 347 342 344 344 341
312 311 311 311 310 301 301 307 319 319 319 324 326 331 334 336 338 341 343 345 345 348 350 357 359 358 358 358 359 360 359 359 358 352 351 352 349 350 349 350 349 347 347 347 346 344 344 340 343
315 313 314 306 307 309 309 308 319 320 321 323 325 330 336 340 340 341 343 344 345 346 349 354 355 354 356 357 357 359 358 355 347 348 347 350 349 350 350 350 350 348 346 345 343 342 342 341 340
Wind_Speed
10 11 9 11 2 1 15 15 14 8 18 22 23 12 14 10 12 15 17 21 24 19 15 13 12 13 13 14 12 14 14 14 15 17 17 17 17 18 19 18 18 17 17 12 9 12 18 18 17
10 14 9 3 3 14 12 15 13 14 9 15 19 19 21 23 21 20 16 23 22 18 16 14 11 12 13 13 11 13 13 14 14 16 18 18 19 18 20 19 18 19 18 17 15 17 18 16 14
12 16 8 6 13 11 12 13 11 13 12 10 16 12 15 18 20 18 17 18 24 20 17 14 13 12 13 13 12 11 13 13 12 14 18 18 18 17 17 19 19 19 18 18 17 17 17 16 13
9 8 8 9 15 15 14 13 12 12 11 14 19 17 17 23 21 17 17 15 24 21 18 13 13 11 12 12 12 11 13 13 13 13 16 17 17 16 16 17 17 18 17 17 18 16 16 14 11
11 5 2 11 15 14 10 17 13 12 7 17 21 20 17 22 19 15 18 21 21 18 16 14 13 11 10 12 11 11 12 11 11 15 14 16 16 15 15 15 15 16 17 15 15 13 13 12 9
8 9 10 10 14 16 14 12 15 17 15 19 19 18 19 18 16 14 17 16 14 20 16 13 13 11 10 10 10 10 11 11 11 12 14 12 13 13 15 15 14 15 14 13 12 11 11 10 8
7 8 8 11 15 13 17 10 13 13 17 19 18 19 17 17 13 15 18 16 18 20 17 13 12 12 11 11 10 10 10 10 11 11 11 12 13 13 14 13 12 13 12 12 11 9 8 7 5
14 5 17 12 14 14 12 15 13 13 10 14 20 15 17 17 14 16 12 15 15 11 15 16 14 13 11 10 10 10 9 10 9 9 11 12 13 14 13 12 13 11 11 10 9 8 6 6 6
13 5 13 13 16 7 10 22 22 12 13 5 14 20 20 18 14 15 13 15 10 9 11 12 17 13 9 9 8 8 9 9 10 9 9 9 6 9 11 8 12 11 10 10 9 8 7 8 10
4 1 16 16 14 13 13 22 20 6 12 14 21 22 20 18 15 15 13 12 11 8 7 7 14 11 7 5 9 6 8 7 6 6 9 6 4 8 4 10 14 12 12 11 10 10 12 10 6
12 13 14 14 16 8 10 15 8 14 13 14 18 19 19 18 14 14 13 15 11 13 6 11 12 11 8 6 4 3 3 2 6 7 2 5 5 11 9 6 6 6 10 5 7 8 6 8 7
6 11 11 7 5 14 9 11 14 11 13 16 18 18 16 16 15 13 14 13 14 14 9 13 11 11 5 4 5 3 2 4 0 2 2 3 1 2 1 4 6 6 6 6 9 6 8 6 3
8 20 9 7 8 9 9 8 13 11 14 16 19 17 16 14 14 12 13 13 13 13 10 15 10 5 6 5 4 7 5 4 2 2 2 2 2 3 2 2 5 4 5 4 6 5 5 2 4
13 22 18 5 8 20 15 9 7 12 15 17 17 16 12 11 11 11 13 10 12 12 9 15 11 7 5 2 9 6 2 5 4 3 1 5 2 2 3 1 3 4 2 1 2 2 1 3 4
31 16 25 14 5 6 23 17 5 15 16 16 16 16 16 13 11 12 14 13 11 11 10 12 11 11 6 3 7 7 5 4 2 3 5 2 1 3 1 1 3 4 3 2 2 2 3 4 4
13 9 2 17 11 14 18 11 16 17 17 15 14 13 16 13 15 9 12 10 12 10 9 11 9 14 9 6 9 6 4 3 3 3 5 7 6 7 5 4 4 6 4 3 3 3 1 4 4
13 7 10 12 15 17 15 13 18 19 17 16 15 12 12 15 10 8 12 13 12 12 8 6 4 6 9 7 4 9 11 7 4 5 4 6 6 5 3 4 5 3 4 4 4 3 3 3 4
7 15 25 28 6 9 11 13 18 20 17 17 16 15 13 15 16 13 10 13 11 12 10 6 4 7 1 5 1 5 4 3 3 2 5 3 2 1 2 3 3 2 4 4 3 3 3 4 5
12 12 22 22 8 7 12 14 9 15 16 17 16 17 13 16 13 16 15 13 11 8 15 12 8 8 4 4 3 4 3 6 4 4 5 3 3 2 3 3 4 4 3 4 2 2 6 4 4
14 3 17 13 7 7 6 13 10 9 8 13 16 18 16 14 16 15 14 14 12 11 6 9 7 6 5 4 3 1 2 1 3 4 5 3 6 3 4 2 3 4 4 2 4 3 3 3 3
15 15 11 20 3 4 2 7 9 14 31 11 14 15 18 15 16 15 12 11 11 11 9 9 8 9 7 2 2 2 4 1 3 4 6 7 11 2 4 3 1 4 2 3 4 4 2 2 3
6 14 13 17 12 5 10 0 7 12 30 18 12 12 18 19 16 16 15 10 12 13 10 11 9 12 9 6 2 3 2 2 1 3 5 8 1 2 2 3 3 3 3 5 4 3 3 2 3
3 11 9 11 18 12 7 10 11 21 26 30 11 14 13 18 21 17 17 16 12 12 12 11 9 8 7 7 3 4 4 1 2 4 5 2 2 5 4 5 4 5 4 4 5 5 4 3 3
5 12 14 12 12 13 10 8 10 7 2 11 11 5 9 13 20 18 15 15 12 12 11 11 10 8 7 5 4 3 4 1 2 2 1 4 1 1 4 3 3 4 4 5 4 5 4 4 4
6 14 9 8 5 8 7 6 11 7 19 11 12 7 6 13 14 17 15 14 10 12 10 11 12 9 7 8 6 5 2 3 1 1 0 1 3 2 4 3 4 5 5 5 3 4 5 5 2
17 16 9 7 8 3 2 7 6 17 5 8 12 11 9 11 14 16 15 14 12 12 11 11 12 10 8 7 5 5 4 2 3 2 2 2 2 4 5 3 4 4 4 4 5 4 3 6 6
13 12 14 12 16 7 8 6 8 18 11 9 12 13 11 9 15 16 16 14 13 13 10 11 13 11 10 9 7 7 5 3 5 5 1 3 5 3 3 3 4 3 4 5 5 4 6 6 6
13 13 13 9 7 9 7 8 11 14 10 9 12 13 11 12 13 15 14 16 13 14 12 12 12 11 11 12 9 6 6 7 6 3 5 5 5 3 4 3 3 4 3 4 5 5 5 3 4
10 11 10 14 7 10 5 3 14 7 9 12 14 13 14 15 13 13 13 15 14 12 13 13 12 12 11 7 7 10 8 7 5 5 3 2 4 3 3 2 2 3 3 4 4 4 2 5 5
11 17 12 6 9 10 3 2 7 16 9 9 6 13 16 16 14 14 13 15 14 14 13 13 13 13 9 8 6 8 7 6 7 5 5 3 3 3 3 3 1 0 3 4 4 4 3 3 3
Wind_Direction
197 197 218 249 333 148 49 46 107 100 63 72 67 73 62 80 74 101 110 109 109 116 128 108 99 88 90 79 81 82 87 83 82 83 83 93 96 101 113 113 114 110 111 122 134 140 125 113 112
227 225 228 285 233 68 60 56 61 52 70 81 76 67 78 79 87 102 110 120 119 134 123 111 102 91 91 88 90 89 88 85 85 87 85 94 98 105 110 107 110 112 130 134 133 106 103 105 111
251 260 286 227 53 51 69 75 58 49 33 116 105 110 91 113 112 111 130 130 128 117 104 111 106 94 93 92 94 93 93 90 94 91 92 94 102 103 103 108 112 112 118 117 112 109 110 108 117
249 226 237 57 67 62 64 66 40 82 97 100 115 93 79 92 108 127 137 116 109 107 107 114 104 105 100 96 98 106 94 97 98 102 101 99 103 110 112 110 108 110 110 113 112 115 111 111 116
248 287 211 81 76 65 73 85 81 81 64 96 101 102 96 101 116 132 106 105 106 110 118 110 109 104 101 107 105 106 101 100 97 98 101 108 111 113 113 107 109 106 116 115 115 108 102 107 104
278 251 37 101 81 81 58 96 102 96 86 96 113 113 108 122 134 137 125 117 128 115 111 115 116 113 116 107 113 108 113 109 107 104 111 109 110 110 109 113 114 112 111 107 108 101 105 104 112
30 330 145 68 97 66 66 42 96 94 124 112 110 122 127 134 151 129 122 134 122 123 124 138 131 126 122 122 116 122 116 113 113 117 121 126 129 126 123 120 117 121 119 122 111 114 117 128 127
136 157 71 129 84 71 84 54 58 92 96 117 128 136 145 135 149 113 120 107 96 125 136 137 140 147 145 134 124 130 133 134 134 138 147 151 149 145 140 135 133 133 133 134 135 145 153 165 194
147 220 64 49 94 142 111 72 345 122 104 129 98 141 131 146 142 130 131 107 107 127 150 124 133 117 117 131 140 145 152 158 159 166 171 174 171 155 147 144 147 148 155 163 164 173 192 202 225
321 301 68 80 92 79 78 120 195 126 104 100 114 115 137 147 155 135 146 127 151 152 137 123 118 131 103 140 151 187 170 174 192 196 178 207 169 122 231 176 156 163 174 184 188 198 211 217 227
280 61 70 44 76 105 101 125 173 104 115 128 130 136 150 149 160 149 147 153 161 135 149 108 114 132 143 146 194 159 148 229 157 214 146 263 163 154 181 174 167 180 192 186 198 218 223 224 215
6 32 75 79 150 84 72 83 80 75 109 127 136 143 151 160 164 160 157 159 144 133 159 112 134 148 144 99 61 253 222 112 6 289 208 267 58 265 188 171 186 194 168 181 200 208 211 232 223
268 271 92 110 107 102 139 77 106 107 115 127 133 147 161 175 162 161 146 141 138 141 169 130 115 112 127 136 143 68 359 326 130 141 236 41 356 309 30 120 131 230 125 253 226 201 214 185 262
43 23 8 333 129 63 50 349 107 121 136 135 143 158 157 181 162 134 128 153 149 146 159 116 131 135 145 185 129 98 312 284 167 163 71 142 218 325 309 192 23 340 37 117 77 78 12 234 209
93 15 325 311 43 108 70 326 279 144 147 150 162 157 153 186 148 155 151 150 159 154 146 133 149 146 150 162 117 133 207 205 255 159 155 159 223 257 177 284 210 238 277 6 253 265 232 249 277
44 125 94 276 255 136 109 250 255 151 160 164 165 165 165 148 166 167 157 156 135 141 135 149 189 150 176 169 133 149 236 184 236 179 175 192 195 186 215 207 245 192 201 223 197 208 226 260 260
39 12 257 289 239 163 197 183 183 167 169 171 170 173 173 152 166 185 175 151 143 128 139 172 169 133 150 125 160 176 183 185 203 168 192 182 179 170 214 225 220 179 166 204 234 167 170 239 254
195 179 244 248 117 223 217 162 160 171 180 170 175 172 186 164 168 187 213 158 157 141 147 163 194 120 99 129 225 172 148 147 204 168 173 174 220 87 247 308 150 210 143 209 113 191 229 227 242
144 265 288 325 143 281 347 94 173 171 176 182 185 171 190 165 179 171 194 191 178 178 158 175 186 126 175 190 220 127 206 177 202 169 108 84 272 264 236 308 353 290 192 313 351 238 237 271 191
119 300 299 329 4 52 45 28 7 9 200 196 191 171 176 185 165 174 191 175 177 175 185 152 149 146 224 188 196 167 264 208 175 97 113 182 231 257 183 237 266 292 336 239 252 270 309 302 19
149 150 243 251 49 10 86 59 37 319 337 185 196 188 172 180 168 172 183 178 160 149 204 145 138 159 210 244 274 149 348 173 120 99 77 352 281 241 290 159 262 276 273 290 241 241 233 324 311
135 186 240 278 311 309 354 79 242 65 295 289 201 192 175 173 176 162 176 163 165 163 183 148 164 167 198 182 219 156 152 89 177 144 173 209 31 60 259 46 48 347 348 314 295 309 260 214 272
31 171 274 308 41 48 314 311 80 155 229 259 202 183 185 168 166 176 176 170 178 164 169 156 151 180 175 197 127 183 197 199 245 101 109 94 57 37 42 31 14 348 23 333 21 17 2 304 342
341 301 276 60 28 354 279 145 278 249 225 148 146 191 164 164 160 162 168 159 164 150 164 145 145 196 175 180 180 233 148 226 54 21 121 88 59 52 83 67 35 17 8 27 9 16 334 338 321
231 258 271 53 10 222 247 308 227 122 276 141 136 150 142 131 141 146 148 152 152 136 154 148 161 175 193 176 193 215 237 212 175 196 233 168 171 144 101 23 37 22 8 355 13 357 307 287 282
295 301 306 333 187 212 93 238 122 210 151 118 128 141 139 148 139 148 149 145 148 151 164 156 157 173 180 185 203 184 196 220 114 100 109 95 16 72 36 32 38 25 24 9 5 330 334 34 358
265 268 279 290 296 139 224 117 316 283 210 142 130 130 152 154 132 138 149 146 148 155 159 148 155 171 185 177 182 174 187 141 95 115 147 114 41 95 82 40 53 41 40 30 11 9 30 19 350
278 311 307 300 43 4 329 74 170 219 164 153 141 140 141 130 136 141 154 156 155 163 154 147 161 167 185 176 158 166 149 128 115 118 59 67 89 59 67 46 50 51 53 51 2 358 30 24 349
280 231 252 277 149 168 253 59 13 315 200 158 150 152 150 142 149 150 156 154 162 162 157 150 168 175 192 145 153 138 144 126 148 109 112 120 98 123 98 36 47 54 40 48 26 350 324 15 322
256 275 252 247 260 240 329 41 346 321 62 51 134 160 145 141 152 156 155 151 161 162 161 164 179 174 172 135 144 127 123 150 115 119 119 123 142 144 135 110 133 51 59 36 348 349 348 287 285